Regional Weather Roundup
Issued by NWS Binghamton, NY

Home | Current Version | Previous Version | Text Only | Print | Product List | Glossary On
Versions: 1 2 3 4 5 6 7 8 9 10 11 12 13 14 15 16 17 18 19 20 21 22 23 24 25 26 27 28 29 30 31 32 33 34 35 36 37 38 39 40 41 42 43 44 45 46 47 48 49 50
000
ASUS41 KBGM 281410
RWRBGM
RWRBGM
BINGHAMTON REGIONAL WEATHER ROUNDUP
NATIONAL WEATHER SERVICE BINGHAMTON NY
1000 AM EDT SAT MAR 28 2015

Note: "fair" indicates few or no clouds below 12,000 feet with no
significant weather and/or obstructions to visibility.

* = Station(s) that does not report precipitation, such as rain,
snow, etc, also no thunder or fog.

!NYZ009-015>018-022>025-036-037-044>046-055>057-062-281500
...CENTRAL NEW YORK...

CITY           SKY/WX    TMP DP  RH WIND       PRES   REMARKS
BINGHAMTON     CLOUDY    19  10  68 N17G23    29.90R WCI   4
CORTLAND       FLURRIES  19  12  73 NW12      29.99R WCI   7
DANSVILLE      LGT SNOW  19  12  74 NW16      30.09R WCI   4
ELMIRA         CLOUDY    21  11  65 N9        30.01R WCI  11
ITHACA         FLURRIES  17   9  71 NW15      30.01R WCI   2
MONTICELLO     CLOUDY    25  16  68 NW16      29.84R WCI  12
NORWICH        CLOUDY    19  10  68 N14G20      N/A  WCI   6
ONEONTA        LGT SNOW  18  10  73 CALM      29.86R
PENN YAN       LGT SNOW  19  10  68 NW15G21   30.04R WCI   5
ROME           CLOUDY    19   9  65 NW13      30.02R WCI   6
SIDNEY         CLOUDY    23  14  68 N5        29.94R WCI  17
SYRACUSE       CLOUDY    20   9  62 NW14      30.05R WCI   7
$$

!PAZ038>040-043-044-047-048-072-281500
...NORTHEAST PENNSYLVANIA...

CITY           SKY/WX    TMP DP  RH WIND       PRES   REMARKS
HAZLETON       CLOUDY    23  12  63 N13G21    29.90R WCI  11
SCRANTON       CLOUDY    26  11  52 N20       29.91R WCI  12
TOWANDA*       PTSUNNY   25  10  54 N14G22    30.01R WCI  13
$$
&&
KEY
WCI = WIND CHILL INDEX
VSB = VISIBILITY
HX  = HEAT INDEX
$$


USA.gov is the U.S. government's official web portal to all federal, state and local government web resources and services.